Regional Weather Roundup
Issued by NWS San Angelo, TX

Home | Current Version | Previous Version | Text Only | Print | Product List | Glossary On
Versions: 1 2 3 4 5 6 7 8 9 10 11 12 13 14 15 16 17 18 19 20 21 22 23 24 25 26 27 28 29 30 31 32 33 34 35 36 37 38 39 40 41 42 43 44 45 46 47 48 49 50
000
ASUS44 KSJT 191102
RWRSJT
WEST CENTRAL TEXAS REGIONAL WEATHER ROUNDUP
NATIONAL WEATHER SERVICE SAN ANGELO TX
600 AM CDT THU OCT 19 2017

NOTE: "FAIR" INDICATES FEW OR NO CLOUDS BELOW 12,000 FEET WITH NO
SIGNIFICANT WEATHER AND/OR OBSTRUCTIONS TO VISIBILITY.

TXZ049-054-064>066-071>073-076>078-098-099-113-114-127-128-139-140-
154-155-168>170-191200
...LOCATIONS ACROSS WEST CENTRAL TEXAS...

CITY           SKY/WX    TMP DP  RH WIND       PRES   REMARKS
SAN ANGELO     PTCLDY    55  45  68 CALM      30.08R
ABILENE        CLOUDY    62  48  60 S14       30.08R
DYESS AFB      CLEAR     63  49  61 S10G20    30.06R
JUNCTION       CLEAR     47  44  90 NW3       30.10S
SWEETWATER     PTCLDY    59  45  60 S14       30.09S
BROWNWOOD      NOT AVBL
COLEMAN        CLOUDY    55  44  68 S6        30.11R
SONORA         CLEAR     54  48  82 CALM      30.13R
OZONA          FAIR      52  45  76 SE3       30.11R
BRADY          NOT AVBL
$$

TEXAS PANHANDLE/OKLAHOMA PANHANDLE

CITY           SKY/WX    TMP DP  RH WIND       PRES   REMARKS
AMARILLO       CLEAR     54  42  64 S12       30.06S
BORGER         CLEAR     57  42  57 S3        30.05R
CANADIAN       CLOUDY    49  43  80 CALM      30.05S
DALHART        CLOUDY    45  39  79 NW8       30.07S
DUMAS          CLOUDY    43  39  87 W3        30.05S
GUYMON         NOT AVBL
HEREFORD       MOSUNNY   54  47  77 MISG      30.07S
PAMPA          NOT AVBL
PERRYTON       CLOUDY    51  43  75 SE6       30.04R
$$

SOUTHERN PANHANDLE/SOUTH PLAINS/ROLLING PLAINS

CITY           SKY/WX    TMP DP  RH WIND       PRES   REMARKS
LUBBOCK        MOCLDY    54  42  64 CALM      30.08R
SNYDER         PTCLDY    58  46  64 S9        30.08S
CHILDRESS      PTCLDY    53  42  66 SE8       30.07R
SEMINOLE       SUNNY     48  43  82 E3        30.07S
$$

PERMIAN BASIN

CITY           SKY/WX    TMP DP  RH WIND       PRES   REMARKS
MIDLAND        CLEAR     60  45  57 S10       30.04R
ODESSA         NOT AVBL
WINK           CLEAR     57  48  72 SE9       30.01R
$$

FAR WEST/SOUTHWEST MOUNTAINS/TRANS PECOS

CITY           SKY/WX    TMP DP  RH WIND       PRES   REMARKS
ALPINE         CLOUDY    64  44  48 SW5       30.15R
DRYDEN           N/A     59  50  72 NE8       30.03S
EL PASO        CLOUDY    64  53  67 N3        30.05S
FORT STOCKTON  CLEAR     62  45  53 SE15      30.03S
GUADALUPE PASS RAIN      59  52  77 W16       30.15R
MARFA          CLOUDY    55  47  74 NE3       30.14S
PECOS          MOSUNNY   57  52  82 CALM      30.02R
$$

DALLAS/FORT WORTH METROPLEX

CITY           SKY/WX    TMP DP  RH WIND       PRES   REMARKS
DFW AIRPORT    MOCLDY    62  54  74 S7        30.11R
FTW MEACHAM    PTCLDY    59  49  69 SE7       30.11R
DAL-EXECUTIVE  CLOUDY    60  53  77 S5        30.12S
GRAND PRAIRIE  CLOUDY    62  53  73 S3        30.14R
ADDISON        NOT AVBL
MESQUITE       PTSUNNY   52  48  87 SE5       30.14S
LANCASTER      MOSUNNY   52  45  76 CALM      30.14R
$$

NORTH CENTRAL TEXAS

CITY           SKY/WX    TMP DP  RH WIND       PRES   REMARKS
SHRMAN/DENISON MOSUNNY   58  50  75 SE10      30.14R
GAINESVILLE    PTCLDY    51  46  83 CALM      30.15R
BRIDGEPORT     MOSUNNY   51  46  84 CALM      30.12S
DENTON         CLOUDY    57  48  72 SE6       30.12R
WAXAHACHIE     PTSUNNY   55  50  84 CALM      30.15R
GRANBURY       CLOUDY    56  48  76 CALM      30.13R
$$

WESTERN NORTH TEXAS

CITY           SKY/WX    TMP DP  RH WIND       PRES   REMARKS
WICHITA FALLS  CLOUDY    52  45  77 SE6       30.09R
VERNON         SUNNY     53  42  66 CALM      30.09R
BRECKENRIDGE   MOSUNNY   57  47  68 SE7       30.09R
COMANCHE       PTCLDY    57  50  77 S7        30.11R
$$

CENTRAL AND SOUTH CENTRAL TEXAS

CITY           SKY/WX    TMP DP  RH WIND       PRES   REMARKS
AUSTIN/BERGSTM PTCLDY    50  50 100 CALM      30.11S
WACO           CLEAR     59  56  89 S3        30.12R
HILLSBORO      MOSUNNY   63  56  80 SE8       30.13R
TEMPLE         CLEAR     55  52  89 S6        30.12S
KILLEEN-GRAY   PTCLDY    54  53  95 SE6       30.11R
FORT HOOD      PTCLDY    57  55  93 S5        30.08S
GEORGETOWN     PTCLDY    53  49  86 CALM      30.13S
LAGO VISTA     FAIR      62  61  95 S3        30.13R
SAN MARCOS       N/A    N/A N/A N/A MISG        N/A
NEW BRAUNFELS  MOCLDY    55  53  93 N3        30.09S
RANDOLPH AFB   CLOUDY    56  53  92 N5        30.10S
SAN ANTONIO    MOCLDY    56  53  90 CALM      30.11R
STINSON        PTCLDY    61  58  90 N3        30.08S
PLEASANTON     NOT AVBL
LA GRANGE      NOT AVBL
GIDDINGS       SUNNY     53  52  97 CALM      30.12R FOG
$$

EAST TEXAS

CITY           SKY/WX    TMP DP  RH WIND       PRES   REMARKS
PARIS          CLEAR     51  49  92 E7        30.17R
CLARKSVILLE    NOT AVBL
TYLER          PTCLDY    54  52  93 CALM      30.15S
LONGVIEW       CLOUDY    52  32  46 CALM      30.16R
PALESTINE        N/A     58  57  99 CALM      30.16R
NACOGDOCHES    CLOUDY    50  48  93 CALM      30.16R
$$

TEXAS HILL COUNTRY AND EDWARDS PLATEAU

CITY           SKY/WX    TMP DP  RH WIND       PRES   REMARKS
LLANO          NOT AVBL
HORSESHOE BAY  FAIR      55  52  90 CALM      30.11S
KERRVILLE      CLOUDY    55  53  92 CALM      30.11S
FREDERICKSBRG  NOT AVBL
ROCKSPRINGS    NOT AVBL
HONDO          CLOUDY    58  55  90 NE6       30.10R
UVALDE         PTSUNNY   56  55  96 NE3       30.10S
DEL RIO        CLEAR     58  55  90 E7        30.05S
$$

SOUTHEAST TEXAS

CITY           SKY/WX    TMP DP  RH WIND       PRES   REMARKS
COLLEGE STN    CLOUDY    57  55  93 CALM      30.12S
CALDWELL       SUNNY     54  53  97 CALM      30.12S
CROCKETT       NOT AVBL
BRENHAM        CLOUDY    55  54  98 CALM      30.12S
HUNTSVILLE     CLOUDY    59  56  89 CALM      30.14R FOG
CONROE         CLOUDY    57  56  96 CALM      30.13R
HOUSTON BUSH   CLOUDY    65  63  93 N5        30.12R
HOUSTON HOBBY  MOCLDY    68  62  81 NE3       30.10R
PERLAND        MOCLDY    67  61  81 CALM      30.11R
WHARTON        SUNNY     60  59  97 CALM      30.10R FOG
$$

THE UPPER TEXAS COAST

CITY           SKY/WX    TMP DP  RH WIND       PRES   REMARKS
ORANGE         MOSUNNY   63  63 100 E3        30.14R
PORT ARTHUR    PTCLDY    64  63  96 E3        30.11R
GALVESTON      PTCLDY    78  65  63 SE12      30.10R
ANGLETON       PTCLDY    62  60  93 N3        30.09R
BAY CITY       SUNNY     61  61 100 CALM      30.08S
$$

TEXAS COASTAL BEND, RIO GRANDE PLAINS DEEP SOUTH TEXAS

CITY           SKY/WX    TMP DP  RH WIND       PRES   REMARKS
VICTORIA       MOCLDY    59  58  96 N5        30.08S FOG
BEEVILLE       FAIR     N/A N/A N/A N3        30.06S
ROCKPORT       CLOUDY    68  67  96 CALM      30.05R
PORT ARANSAS   NOT AVBL
PORT LAVACA    MOSUNNY   61  59  93 N3        30.08R
CORPUS CHRISTI CLOUDY    64  63  96 N7        30.04S
KINGSVILLE NAS NOT AVBL
COTULLA        CLEAR     59  57  93 CALM      30.07S
LAREDO         CLEAR     64  62  93 E6        30.06S
BROWNSVILLE    CLOUDY    68  66  93 CALM      30.03S
PORT ISABEL    PTCLDY    68  65  90 NW5       30.02S
HEBBRONVILLE   SUNNY     57  55  94 CALM      30.07S
MCALLEN        CLEAR     68  64  87 CALM      30.04S
WESLACO        CLEAR     63  61  95 CALM      30.03S
FALFURRIAS     SUNNY     62  60  91 CALM      30.05R
EDINBURG       MOSUNNY   63  60  91 CALM      30.04F
$$



USA.gov is the U.S. government's official web portal to all federal, state and local government web resources and services.